Regional Weather Roundup
Issued by NWS

Home | Current Version | Previous Version | Text Only | Print | Product List | Glossary Off
Versions: 1 2 3 4 5 6 7 8 9 10 11 12 13 14 15 16 17 18 19 20 21 22 23 24 25 26 27 28 29 30 31 32 33 34 35 36 37 38 39 40 41 42 43 44 45 46 47 48 49 50

000
ASUS43 KLSX 280559
RWRMO

WEATHER SUMMARY FOR MISSOURI
NATIONAL WEATHER SERVICE SPRINGFIELD MO
1200 AM CST WED JAN 28 2015

NOTE: "FAIR" INDICATES FEW OR NO CLOUDS BELOW 12,000 FEET WITH NO
       SIGNIFICANT WEATHER AND/OR OBSTRUCTIONS TO VISIBILITY.
       CURRENT SKY AND/OR WEATHER CONDITIONS ARE NOT AVAILABLE FOR
       CHILLICOTHE AND FARMINGTON.

MOZ001>031-035>038-043-044-053-054-280700-
...NORTHERN AND WESTERN MISSOURI...

CITY           SKY/WX    TMP DP  RH WIND       PRES   REMARKS
KANSAS CTY INT CLEAR     40  31  70 SE14      30.04F
6HR MIN TEMP:  40; 6HR MAX TEMP:  50;

KANSAS C DTWN  CLEAR     41  31  67 CALM      30.06F
6HR MIN TEMP:  38; 6HR MAX TEMP:  53;

LEE`S SUMMIT   FAIR      42  30  62 SE13      30.07F
6HR MIN TEMP:  42; 6HR MAX TEMP:  49;

ST JOSEPH      CLEAR     41  31  67 SE12G21   30.04F
6HR MIN TEMP:  41; 6HR MAX TEMP:  48;

CHILLICOTHE      N/A     36  30  79 SE8       30.13F WCI  30
6HR MIN TEMP:  35; 6HR MAX TEMP:  44;

KIRKSVILLE     CLEAR     28  27  96 E12       30.17F FOG     WCI  18
6HR MIN TEMP:  28; 6HR MAX TEMP:  39;


$$
MOZ066>068-077>081-088>096-101>105-280700-
...SOUTHWEST MISSOURI...

CITY           SKY/WX    TMP DP  RH WIND       PRES   REMARKS
SPRINGFIELD    CLEAR     46  28  49 SE14      30.10F
6HR MIN TEMP:  39; 6HR MAX TEMP:  51;

JOPLIN         CLEAR     49  28  44 SE10      30.06S
6HR MIN TEMP:  48; 6HR MAX TEMP:  58;


$$
MOZ032>034-039>042-045>050-055>058-069>072-280700-
...CENTRAL MISSOURI...

CITY           SKY/WX    TMP DP  RH WIND       PRES   REMARKS
COLUMBIA       CLEAR     35  30  82 E12       30.16S WCI  27
6HR MIN TEMP:  35; 6HR MAX TEMP:  44;

JEFFERSON CITY CLEAR     38  30  73 E10       30.18S
6HR MIN TEMP:  35; 6HR MAX TEMP:  48;

ROLLA          CLEAR     34  29  82 SE14      30.16S WCI  25
6HR MIN TEMP:  34; 6HR MAX TEMP:  41;

SEDALIA        CLEAR     37  30  75 SE9       30.13S
6HR MIN TEMP:  37; 6HR MAX TEMP:  46;

OSAGE BEACH    CLEAR     39  28  65 E6        30.14F

$$
MOZ051-052-059>065-280700-
...EAST CENTRAL MISSOURI...

CITY           SKY/WX    TMP DP  RH WIND       PRES   REMARKS
ST LOUIS INTL  CLEAR     29  24  82 E6        30.25R WCI  23
6HR MIN TEMP:  29; 6HR MAX TEMP:  37;

SPIRIT OF STL  CLEAR     29  25  85 E3        30.24R
6HR MIN TEMP:  27; 6HR MAX TEMP:  39;

ST CHARLES     CLEAR     28  26  92 E6        30.25R FOG     WCI  22
6HR MIN TEMP:  27; 6HR MAX TEMP:  33;


$$
MOZ072>076-082>087-097>100-106>115-280700-
...SOUTH CENTRAL AND SOUTHEAST MISSOURI...

CITY           SKY/WX    TMP DP  RH WIND       PRES   REMARKS
CAPE GIRARDEAU CLEAR     31  28  89 E3        30.25S
6HR MIN TEMP:  29; 6HR MAX TEMP:  39;

FARMINGTON     CLEAR     30  27  86 MISG      30.26R
6HR MIN TEMP:  28; 6HR MAX TEMP:  39;

POPLAR BLUFF   CLEAR     36  29  75 CALM      30.25R
6HR MIN TEMP:  34; 6HR MAX TEMP:  46;

WEST PLAINS    CLEAR     39  32  76 SE8       30.20R
6HR MIN TEMP:  37; 6HR MAX TEMP:  48;


$$



USA.gov is the U.S. government's official web portal to all federal, state and local government web resources and services.